Hourly Data Report for October 04, 2017

All times are specified in Local Standard Time (LST). Add 1 hour to adjust for Daylight Saving Time where and when it is observed.

VICTORIA HARBOUR A
BRITISH COLUMBIA

48°25'22.000" N
123°23'15.000" W
     
1018633
YWH

Related Data

No related data is available for this station

Download Data

Hourly Data (October 2017)
Hourly Data Report for October 4, 2017
Temp Definition
°C
Dew Point Temp Definition
°C
Rel Hum Definition
%
Wind Dir Definition
10's deg

Wind Spd Definition
km/h
Visibility Definition
km
Stn Press Definition
kPa
Hmdx Definition


Wind Chill Definition


Weather Definition


TIME
00:00 Legend Double Dagger 9.1 3.9 70 1 1 LegendMM 102.31     LegendNANA
01:00 Legend Double Dagger 8.4 3.7 72 35 3 LegendMM 102.33     LegendNANA
02:00 Legend Double Dagger 7.3 3.8 79 34 4 LegendMM 102.32     LegendNANA
03:00 Legend Double Dagger 7.7 3.5 75 1 4 LegendMM 102.28     LegendNANA
04:00 Legend Double Dagger 7.3 4.0 79 3 2 LegendMM 102.23     LegendNANA
05:00 Legend Double Dagger 8.4 4.2 75 31 2 LegendMM 102.21     LegendNANA
06:00 Legend Double Dagger 8.1 3.9 75 33 1 LegendMM 102.21     LegendNANA
07:00 Legend Double Dagger 7.8 3.4 74   0 LegendMM 102.24     LegendNANA
08:00 Legend Double Dagger 10.1 3.6 64 35 3 LegendMM 102.25     LegendNANA
09:00 Legend Double Dagger 13.1 3.8 53 18 1 LegendMM 102.23     LegendNANA
10:00 Legend Double Dagger 14.9 3.4 46 4 9 LegendMM 102.26     LegendNANA
11:00 Legend Double Dagger 15.6 4.2 46 34 11 LegendMM 102.21     LegendNANA
12:00 Legend Double Dagger 16.5 4.5 45 32 4 LegendMM 102.20     LegendNANA
13:00 Legend Double Dagger 13.3 8.4 72 22 10 LegendMM 102.16     LegendNANA
14:00 Legend Double Dagger 14.8 8.3 65 18 11 LegendMM 102.14     LegendNANA
15:00 Legend Double Dagger 13.1 8.6 74 22 15 LegendMM 102.14     LegendNANA
16:00 Legend Double Dagger 12.7 9.3 80 22 8 LegendMM 102.13     LegendNANA
17:00 Legend Double Dagger 12.8 8.5 75 23 6 LegendMM 102.11     LegendNANA
18:00 Legend Double Dagger 12.7 7.5 70 20 3 LegendMM 102.10     LegendNANA
19:00 Legend Double Dagger 12.0 6.7 70 34 2 LegendMM 102.10     LegendNANA
20:00 Legend Double Dagger 11.4 5.8 68 1 2 LegendMM 102.11     LegendNANA
21:00 Legend Double Dagger 10.8 5.7 71 1 3 LegendMM 102.12     LegendNANA
22:00 Legend Double Dagger 9.5 5.2 74 34 3 LegendMM 102.15     LegendNANA
23:00 Legend Double Dagger 8.7 5.2 79 36 5 LegendMM 102.15     LegendNANA

Notes on Data Quality.

Legend

  • E = Estimated
  • M = Missing
  • NA = Not Available
  • ‡ = Partner data that is not subject to review by the National Climate Archives
Date modified: